Regional Weather Roundup
Issued by NWS Little Rock, AR

Home | Current Version | Previous Version | Text Only | Print | Product List | Glossary Off
Versions: 1 2 3 4 5 6 7 8 9 10 11 12 13 14 15 16 17 18 19 20 21 22 23 24 25 26 27 28 29 30 31 32

000
ASUS44 KLZK 200205
RWRLZK

WEATHER ROUNDUP FOR ARKANSAS
NATIONAL WEATHER SERVICE LITTLE ROCK AR
800 PM CST SUN FEB 19 2017

NOTE: "FAIR" INDICATES FEW OR NO CLOUDS BELOW 12,000 FEET WITH NO
SIGNIFICANT WEATHER AND/OR OBSTRUCTIONS TO VISIBILITY.

ARZ001-003-010-029-200300-
NORTHWEST ARKANSAS

CITY           SKY/WX    TMP DP  RH WIND       PRES   REMARKS
FAYETTEVILLE   CLOUDY    67  58  72 SE6       29.97R
FORT SMITH     CLOUDY    68  56  65 E7        29.95S
HARRISON       CLEAR     61  56  83 SE10      30.01S
BENTONVILLE    PTCLDY    66  55  68 SE7       29.97S
ROGERS         CLOUDY    68  57  68 SE12      29.97F
SILOAM SPGS    CLOUDY    66  55  68 SE7       29.95S
HIGHFILL       CLOUDY    67  57  70 S12       29.96S
SPRINGDALE     CLOUDY    68  57  68 SE8       29.98F
$$

ARZ004-005-016-200300-
NORTH CENTRAL ARKANSAS

CITY           SKY/WX    TMP DP  RH WIND       PRES   REMARKS
BATESVILLE     CLEAR     61  54  77 E6        30.05S
FLIPPIN        CLEAR     63  52  67 E3        30.00S
MTN HOME       CLEAR     60  56  86 SE5       30.02S
$$

ARZ040-041-200300-
WEST CENTRAL ARKANSAS

CITY           SKY/WX    TMP DP  RH WIND       PRES   REMARKS
MENA           PTCLDY    61  61 100 CALM      29.97F
MOUNT IDA      CLEAR     62  59  90 CALM      29.97S
$$

ARZ009-017-025-026-028-200300-
NORTHEAST ARKANSAS

CITY           SKY/WX    TMP DP  RH WIND       PRES   REMARKS
CORNING        CLOUDY    61  57  88 SE5       30.07R
JONESBORO      PTCLDY    57  54  89 CALM      30.06R
NEWPORT        CLOUDY    59  56  89 E5        30.06R
WALNUT RIDGE   CLEAR     61  54  77 SE3       30.06R
BLYTHEVILLE    PTCLDY    60  53  77 SE7       30.06R
$$

ARZ022-023-033-042-044-200300-
CENTRAL ARKANSAS

CITY           SKY/WX    TMP DP  RH WIND       PRES   REMARKS
LITTLE ROCK    CLEAR     62  55  77 E7        30.01S
N LITTLE ROCK    N/A     66  58  73 E6        30.02S
JACKSONVILLE   CLEAR     60  56  89 E3        30.01S
SEARCY         CLEAR     64  59  83 E5        30.05R
HOT SPRINGS    CLEAR     64  55  72 E7        30.00R
RUSSELLVILLE   CLEAR     66  57  72 E5        29.98S
CLINTON        FAIR      54  52  94 CALM      30.03R FOG
$$

ARZ036-200300-
EAST ARKANSAS

CITY           SKY/WX    TMP DP  RH WIND       PRES   REMARKS
WEST MEMPHIS   CLEAR     60  54  80 CALM      30.05R
$$

ARZ050-053-066-070-073-200300-
SOUTHWEST ARKANSAS

CITY           SKY/WX    TMP DP  RH WIND       PRES   REMARKS
ARKADELPHIA    FAIR      60  57  89 CALM      29.98S
CAMDEN         CLEAR     63  50  63 SE3       29.98S
TEXARKANA      MOCLDY    68  58  70 E5        29.94S
EL DORADO      PTCLDY    65  53  65 E6        29.98F
DE QUEEN       PTCLDY    66  60  81 E8        29.91F
$$

ARZ056-057-069-200300-
SOUTHEAST ARKANSAS

CITY           SKY/WX    TMP DP  RH WIND       PRES   REMARKS
PINE BLUFF     CLEAR     60  55  83 E6        30.01S
STUTTGART      CLEAR     64  52  63 E8        30.03F
MONTICELLO     CLEAR     66  54  65 E3        30.01S

$$






USA.gov is the U.S. government's official web portal to all federal, state and local government web resources and services.